Regional Weather Roundup
Issued by NWS

Home | Current Version | Previous Version | Text Only | Print | Product List | Glossary On
Versions: 1 2 3 4 5 6 7 8 9 10 11 12 13 14 15 16 17 18 19 20 21 22 23 24 25 26 27 28 29 30 31 32 33 34 35 36 37 38 39 40 41 42 43 44 45 46 47 48 49 50
000
ASUS43 KLSX 201457
RWRMO

WEATHER SUMMARY FOR MISSOURI
NATIONAL WEATHER SERVICE SPRINGFIELD MO
1000 AM CDT WED SEP 20 2017

NOTE: "FAIR" INDICATES FEW OR NO CLOUDS BELOW 12,000 FEET WITH NO
       SIGNIFICANT WEATHER AND/OR OBSTRUCTIONS TO VISIBILITY.
       CURRENT SKY AND/OR WEATHER CONDITIONS ARE NOT AVAILABLE FOR
       CHILLICOTHE AND FARMINGTON.

MOZ001>031-035>038-043-044-053-054-201600-
...NORTHERN AND WESTERN MISSOURI...

CITY           SKY/WX    TMP DP  RH WIND       PRES   REMARKS
KANSAS CTY INT MOSUNNY   79  72  79 S20G25    29.79S
LEE`S SUMMIT   SUNNY     80  73  79 SW18G28   29.82R
ST JOSEPH      SUNNY     80  72  76 S14       29.77R
CHILLICOTHE      N/A     79  73  82 S13G21    29.81S

$$
MOZ066>068-077>081-088>096-101>105-201600-
...SOUTHWEST MISSOURI...

CITY           SKY/WX    TMP DP  RH WIND       PRES   REMARKS
SPRINGFIELD    SUNNY     79  73  82 S16       29.91R
JOPLIN         SUNNY     82  74  76 S21G29    29.87R
BRANSON        MOSUNNY   82  72  69 SW5       29.95R

$$
MOZ032>034-039>042-045>050-055>058-069>072-201600-
...CENTRAL MISSOURI...

CITY           SKY/WX    TMP DP  RH WIND       PRES   REMARKS
COLUMBIA       NOT AVBL
JEFFERSON CITY SUNNY     80  71  74 S9        29.88R
ROLLA          SUNNY     82  72  71 SW14      29.94R
SEDALIA        SUNNY     81  73  76 SW13G25   29.87R
WARRENSBURG    MOSUNNY   79  70  73 S12G21    29.83R

$$
MOZ051-052-059>065-201600-
...EAST CENTRAL MISSOURI...

CITY           SKY/WX    TMP DP  RH WIND       PRES   REMARKS
ST LOUIS INTL  MOSUNNY   83  72  69 S13       29.92S

$$
MOZ072>076-082>087-097>100-106>115-201600-
...SOUTH CENTRAL AND SOUTHEAST MISSOURI...

CITY           SKY/WX    TMP DP  RH WIND       PRES   REMARKS
CAPE GIRARDEAU SUNNY     83  72  69 SW12      29.98R
POPLAR BLUFF   SUNNY     82  74  76 SW6       29.97R
WEST PLAINS    SUNNY     81  71  71 S12       29.97R

$$



USA.gov is the U.S. government's official web portal to all federal, state and local government web resources and services.